Retour au catalogue

STARLINK-31722

ActifCommunicationsVLEO
NORAD 59549·PAYLOAD·🇺🇸 United States

Lancé Apr 18, 2024 depuis Cape Canaveral Space Force Station

Loading…

Prochains Passages (prochaines 24 heures)

TLE

FraisSource: CelesTrak SupGP

Époque: Sep 14, 2026, 22:22 UTC

1 59549C 24074R   26257.93243056 -.00018602  00000+0 -67377-3 0  2571
2 59549  43.0019 354.3715 0001525 267.0349   9.2159 15.27588097    12

Suivez STARLINK-31722 en temps réel avec AllMySat

Download on the App Store